When you browse on this site, cookies collect data to enhance your experience and personalize the content and advertising you see.
Visit our Privacy Policy to learn more. By continuing to use the site, you agree to this use of cookies and data.
  • In Hungary
  • List of Countries
  • For 7 days
  • Water Temperature
  • Weather Map
  • News
  • Weather Widgets
  • user-avatar
    Login

    Hourly Weather Uhorskoe

    Today, 26 January, Sunday

    Time Temperature Precipitation Wind Pressure Humidity
    00:00 -5°C° 0 mm 6 mps 740 mmHg 82%
    01:00 -6°C° 0 mm 7 mps 741 mmHg 82%
    02:00 -6°C° 0 mm 7 mps 741 mmHg 83%
    03:00 -6°C° 0 mm 7 mps 742 mmHg 83%
    04:00 -6°C° 0 mm 7 mps 743 mmHg 84%
    05:00 -5°C° 0 mm 6 mps 744 mmHg 84%
    06:00 -5°C° 0 mm 6 mps 744 mmHg 84%
    07:00 -5°C° 0 mm 6 mps 745 mmHg 83%
    08:00 -5°C° 0 mm 6 mps 746 mmHg 83%
    09:00 -6°C° 0 mm 5 mps 747 mmHg 85%
    10:00 -5°C° 0 mm 6 mps 747 mmHg 84%
    11:00 -5°C° 0 mm 6 mps 748 mmHg 83%
    12:00 -5°C° 0 mm 6 mps 749 mmHg 82%
    13:00 -5°C° 0 mm 6 mps 749 mmHg 81%
    14:00 -4°C° 0 mm 6 mps 749 mmHg 80%
    15:00 -4°C° 0 mm 6 mps 749 mmHg 79%
    16:00 -5°C° 0 mm 5 mps 749 mmHg 82%
    17:00 -5°C° 0 mm 5 mps 749 mmHg 84%
    18:00 -5°C° 0 mm 4 mps 749 mmHg 87%
    19:00 -5°C° 0 mm 5 mps 749 mmHg 87%
    20:00 -5°C° 0 mm 5 mps 748 mmHg 88%
    21:00 -5°C° 0 mm 6 mps 748 mmHg 88%
    22:00 -4°C° 0.1 mm 6 mps 747 mmHg 88%
    23:00 -4°C° 0.1 mm 7 mps 747 mmHg 89%

    Tomorrow, 27 January, Monday

    Time Temperature Precipitation Wind Pressure Humidity
    00:00 -4°C° 0.1 mm 8 mps 746 mmHg 89%
    01:00 -4°C° 0.2 mm 8 mps 746 mmHg 90%
    02:00 -2°C° 0.2 mm 8 mps 746 mmHg 92%
    03:00 -2°C° 0.2 mm 8 mps 746 mmHg 93%
    04:00 -1°C° 0.1 mm 8 mps 746 mmHg 94%
    05:00 -1°C° 0.1 mm 8 mps 746 mmHg 95%
    06:00 -1°C° 0.1 mm 8 mps 746 mmHg 95%
    07:00 -1°C° 0.1 mm 7 mps 746 mmHg 95%
    08:00 -1°C° 0.1 mm 6 mps 747 mmHg 96%
    09:00 0°C° 0.1 mm 5 mps 748 mmHg 96%
    10:00 -1°C° 0.1 mm 5 mps 748 mmHg 91%
    11:00 -1°C° 0.1 mm 4 mps 749 mmHg 87%
    12:00 -2°C° 0.1 mm 4 mps 750 mmHg 83%
    13:00 -1°C° 0 mm 3 mps 750 mmHg 82%
    14:00 -1°C° 0 mm 2 mps 751 mmHg 81%
    15:00 -2°C° 0 mm 2 mps 751 mmHg 80%
    16:00 -3°C° 0 mm 2 mps 752 mmHg 81%
    17:00 -3°C° 0 mm 2 mps 752 mmHg 81%
    18:00 -4°C° 0 mm 2 mps 753 mmHg 82%
    19:00 -4°C° 0 mm 2 mps 753 mmHg 81%
    20:00 -4°C° 0 mm 2 mps 753 mmHg 81%
    21:00 -6°C° 0 mm 3 mps 754 mmHg 80%
    22:00 -6°C° 0 mm 3 mps 754 mmHg 80%
    23:00 -6°C° 0 mm 3 mps 754 mmHg 79%

    Day after tomorrow, 28 January, Tuesday

    Time Temperature Precipitation Wind Pressure Humidity
    00:00 -7°C° 0 mm 4 mps 754 mmHg 79%
    01:00 -7°C° 0.1 mm 4 mps 754 mmHg 83%
    02:00 -7°C° 0.1 mm 4 mps 754 mmHg 88%
    03:00 -8°C° 0.1 mm 5 mps 753 mmHg 92%
    04:00 -8°C° 0.4 mm 5 mps 753 mmHg 93%
    05:00 -8°C° 0.4 mm 5 mps 753 mmHg 93%
    06:00 -8°C° 0.4 mm 5 mps 753 mmHg 94%
    07:00 -7°C° 0.4 mm 5 mps 753 mmHg 94%
    08:00 -7°C° 0.4 mm 5 mps 752 mmHg 95%
    09:00 -7°C° 0.4 mm 5 mps 752 mmHg 95%
    10:00 -7°C° 0.3 mm 5 mps 752 mmHg 95%
    11:00 -6°C° 0.3 mm 5 mps 752 mmHg 94%
    12:00 -5°C° 0.3 mm 5 mps 752 mmHg 94%
    13:00 -4°C° 0.1 mm 5 mps 751 mmHg 95%
    14:00 -4°C° 0.1 mm 5 mps 751 mmHg 95%
    15:00 -2°C° 0.1 mm 4 mps 751 mmHg 96%
    16:00 -2°C° 0.2 mm 4 mps 751 mmHg 96%
    17:00 -2°C° 0.2 mm 4 mps 751 mmHg 97%
    18:00 -2°C° 0.2 mm 4 mps 751 mmHg 97%
    19:00 -1°C° 0.2 mm 4 mps 751 mmHg 97%
    20:00 -1°C° 0.2 mm 4 mps 751 mmHg 97%
    21:00 -1°C° 0.2 mm 4 mps 751 mmHg 97%
    22:00 -1°C° 0.1 mm 5 mps 751 mmHg 97%
    23:00 -1°C° 0.1 mm 5 mps 751 mmHg 97%

    29 January, Wednesday

    Time Temperature Precipitation Wind Pressure Humidity
    00:00 -2°C° 0.1 mm 5 mps 750 mmHg 97%
    01:00 -2°C° 0 mm 4 mps 750 mmHg 96%
    02:00 -2°C° 0 mm 4 mps 750 mmHg 95%
    03:00 -2°C° 0 mm 4 mps 750 mmHg 95%
    04:00 -1°C° 0 mm 3 mps 750 mmHg 95%
    05:00 -1°C° 0 mm 3 mps 750 mmHg 96%
    06:00 -1°C° 0 mm 3 mps 750 mmHg 97%
    07:00 -1°C° 0 mm 3 mps 750 mmHg 97%
    08:00 -1°C° 0 mm 3 mps 750 mmHg 97%
    09:00 -1°C° 0 mm 3 mps 750 mmHg 98%
    10:00 -1°C° 0.1 mm 4 mps 750 mmHg 98%
    11:00 -1°C° 0.1 mm 4 mps 750 mmHg 99%
    12:00 -1°C° 0.1 mm 4 mps 749 mmHg 99%
    13:00 -1°C° 0.1 mm 5 mps 749 mmHg 99%
    14:00 -1°C° 0.1 mm 5 mps 749 mmHg 98%
    15:00 -1°C° 0.1 mm 5 mps 748 mmHg 98%
    16:00 -1°C° 0.2 mm 5 mps 748 mmHg 98%
    17:00 -2°C° 0.2 mm 5 mps 748 mmHg 97%
    18:00 -3°C° 0.2 mm 6 mps 747 mmHg 97%
    19:00 -3°C° 0.5 mm 6 mps 747 mmHg 97%
    20:00 -4°C° 0.5 mm 6 mps 747 mmHg 96%
    21:00 -4°C° 0.5 mm 6 mps 746 mmHg 96%
    22:00 -4°C° 0.3 mm 6 mps 746 mmHg 96%
    23:00 -4°C° 0.3 mm 6 mps 745 mmHg 96%

    30 January, Thursday

    Time Temperature Precipitation Wind Pressure Humidity
    00:00 -5°C° 0.3 mm 6 mps 745 mmHg 96%
    01:00 -4°C° 0.4 mm 6 mps 744 mmHg 96%
    02:00 -4°C° 0.4 mm 6 mps 744 mmHg 96%
    03:00 -4°C° 0.4 mm 6 mps 743 mmHg 96%
    04:00 -2°C° 0.2 mm 5 mps 743 mmHg 97%
    05:00 -1°C° 0.2 mm 5 mps 742 mmHg 98%
    06:00 0°C° 0.2 mm 5 mps 741 mmHg 98%
    07:00 0°C° 0.6 mm 5 mps 741 mmHg 98%
    08:00 -1°C° 0.6 mm 6 mps 740 mmHg 98%
    09:00 -1°C° 0.6 mm 6 mps 740 mmHg 98%
    10:00 -1°C° 0.2 mm 6 mps 740 mmHg 96%
    11:00 -1°C° 0.2 mm 6 mps 740 mmHg 94%
    12:00 -2°C° 0.2 mm 6 mps 740 mmHg 91%
    13:00 -2°C° 0 mm 6 mps 741 mmHg 89%
    14:00 -2°C° 0 mm 6 mps 741 mmHg 86%
    15:00 -2°C° 0 mm 6 mps 742 mmHg 84%
    16:00 -3°C° 0 mm 6 mps 742 mmHg 84%
    17:00 -3°C° 0 mm 6 mps 743 mmHg 84%
    18:00 -4°C° 0 mm 5 mps 743 mmHg 85%
    19:00 -4°C° 0 mm 5 mps 743 mmHg 85%
    20:00 -2°C° 0 mm 5 mps 744 mmHg 85%
    21:00 -2°C° 0 mm 5 mps 744 mmHg 86%
    22:00 -4°C° 0 mm 5 mps 744 mmHg 87%
    23:00 -4°C° 0 mm 5 mps 744 mmHg 89%

    31 January, Friday

    Time Temperature Precipitation Wind Pressure Humidity
    00:00 -5°C° 0 mm 5 mps 744 mmHg 91%
    01:00 -5°C° 0 mm 5 mps 744 mmHg 92%
    02:00 -4°C° 0 mm 4 mps 744 mmHg 93%
    03:00 -5°C° 0 mm 4 mps 743 mmHg 93%
    04:00 -5°C° 0 mm 4 mps 743 mmHg 93%
    05:00 -5°C° 0 mm 4 mps 743 mmHg 93%
    06:00 -5°C° 0 mm 4 mps 743 mmHg 92%
    07:00 -4°C° 0 mm 4 mps 743 mmHg 92%
    08:00 -4°C° 0 mm 4 mps 743 mmHg 91%
    09:00 -4°C° 0 mm 4 mps 743 mmHg 91%
    10:00 -4°C° 0 mm 4 mps 743 mmHg 90%
    11:00 -3°C° 0 mm 4 mps 742 mmHg 90%
    12:00 -3°C° 0 mm 4 mps 742 mmHg 89%
    13:00 -3°C° 0.2 mm 4 mps 742 mmHg 91%
    14:00 -3°C° 0.2 mm 4 mps 742 mmHg 93%
    15:00 -2°C° 0.2 mm 4 mps 742 mmHg 95%
    16:00 -3°C° 0.4 mm 4 mps 742 mmHg 96%
    17:00 -2°C° 0.4 mm 3 mps 742 mmHg 97%
    18:00 -2°C° 0.4 mm 3 mps 742 mmHg 97%
    19:00 -2°C° 0.3 mm 3 mps 742 mmHg 98%
    20:00 -2°C° 0.3 mm 2 mps 742 mmHg 98%
    21:00 -2°C° 0.3 mm 2 mps 742 mmHg 98%
    22:00 -2°C° 0.2 mm 2 mps 742 mmHg 98%
    23:00 0°C° 0.2 mm 1 mps 742 mmHg 98%
    Show more